{"data":{"norad_id":64762,"intl_designator":"2025-147H","name":"STARLINK-34638","alt_names":[],"object_type":"PAYLOAD","status":"ACTIVE","operator":null,"country":"US","launch_date":"2025-07-08","launch_site_code":"AFETR","launch_vehicle":null,"mission":null,"orbit_class":"UNKNOWN","rcs_meters":null,"size_class":null,"mass_kg":null,"dimensions":null,"purposes":["comms"],"wikipedia_slug":null,"has_3d_model":false,"image_url":null,"decayed_at":null,"tle_current":{"epoch":"2026-09-20T17:24:04.343328Z","epoch_age_seconds":108486,"freshness":"FRESH","line1":"1 64762U 25147H   26263.72505027  .00025147  00000+0  75279-3 0  9992","line2":"2 64762  53.1592  52.5004 0000647  53.6759 306.4303 15.34404859 68679","mean_motion":15.34404859,"eccentricity":6.47e-5,"inclination_deg":53.1592,"raan_deg":52.5004,"arg_perigee_deg":53.6759,"mean_anomaly_deg":306.4303,"bstar":0.00075279,"rev_number":6867,"period_min":93.847460893631,"perigee_km":462.24619684408,"apogee_km":463.13139970238,"semimajor_km":6840.8257982732,"source":"CELESTRAK","updated_at":"2026-09-21T09:00:35.437348Z"}}}